This is the latest recevied weather packets stored in our database for station/object BARLOW-WX. If no packets are shown the sender has not sent any weather packets the latest 10 day(s).
| Time | Temp. | Humidity | Pressure | Rain* | Wind** | Luminosity | Snow |
|---|---|---|---|---|---|---|---|
| 1777613495 | 4.44° C | 84% | 987.1 hPa | 0 mm | - | - | - |
| 1777612580 | 4.44° C | 84% | 987.1 hPa | 0 mm | - | - | - |
| 1777611705 | 5° C | 84% | 987.1 hPa | 0 mm | - | - | - |
| 1777610776 | 5° C | 81% | 988.3 hPa | 0 mm | - | - | - |
| 1777609896 | 5° C | 78% | 987.4 hPa | 0 mm | - | - | - |
| 1777608977 | 5° C | 78% | 987.4 hPa | 0 mm | - | - | - |
| 1777608110 | 5° C | 78% | 987.4 hPa | 0 mm | - | - | - |
| 1777607177 | 5° C | 71% | 987.4 hPa | 0 mm | - | - | - |
| 1777606293 | 5.56° C | 76% | 987 hPa | 0 mm | - | - | - |
| 1777605377 | 5.56° C | 76% | 987 hPa | 0 mm | - | - | - |
| 1777604503 | 5.56° C | 76% | 987 hPa | 0 mm | - | - | - |
| 1777603577 | 6.11° C | 71% | 987.2 hPa | 0 mm | - | - | - |
| 1777602689 | 6.11° C | 71% | 987.2 hPa | 0 mm | - | - | - |
| 1777601777 | 6.11° C | 74% | 987.6 hPa | 0 mm | - | - | - |
| 1777600897 | 6.11° C | 74% | 987.6 hPa | 0 mm | - | - | - |
| 1777599977 | 6.11° C | 66% | 987.8 hPa | 0 mm | - | - | - |
| 1777599091 | 6.11° C | 66% | 987.8 hPa | 0 mm | - | - | - |
| 1777598177 | 6.67° C | 66% | 987.8 hPa | 0 mm | - | - | - |
| 1777597299 | 6.67° C | 66% | 987.8 hPa | 0 mm | - | - | - |
| 1777596376 | 6.67° C | 56% | 987.2 hPa | 0 mm | - | - | - |
| 1777595489 | 6.67° C | 56% | 988.4 hPa | 0 mm | - | - | - |
| 1777594577 | 7.22° C | 56% | 988.4 hPa | 0 mm | - | - | - |
| 1777593714 | 7.22° C | 56% | 988.4 hPa | 0 mm | - | - | - |
| 1777592781 | 7.78° C | 49% | 987.9 hPa | 0 mm | - | - | - |
| 1777591894 | 7.78° C | 48% | 988 hPa | 0 mm | - | - | - |
* Rain latest hour (hover to see other rain measurements)
** Current wind speed in m/s (hover to see current wind gust speed)